EW7772 Weather Reports


time (UTC)temp
F
wind
direction
speed
knots
gust
knots
rain 1hr
in
rain 24hr
in
rain mn
in
humidity
%
barometer
mb
20260510084501 68 91 0.0 0.0 0.00 0.00 0.00 57 1010.1
20260510083058 67 94 0.0 0.0 0.00 0.00 0.00 60 1010.2
20260510081557 66 101 0.0 0.0 0.00 0.00 0.00 62 1010.2
20260510080051 65 97 0.0 0.0 0.00 0.00 0.00 61 1010.3
20260510074548 64 92 0.0 0.0 0.00 0.00 0.00 64 1010.4
20260510073046 64 105 0.0 0.0 0.00 0.00 0.00 64 1010.7
20260510071546 63 86 0.0 0.0 0.00 0.00 0.00 65 1010.7
20260510070046 62 74 0.0 0.0 0.00 0.00 0.00 68 1010.8
20260510064538 61 88 0.0 0.0 0.00 0.00 0.00 67 1010.9
20260510063035 60 62 0.0 0.0 0.00 0.00 0.00 69 1010.9
20260510061532 60 80 0.0 0.0 0.00 0.00 0.00 68 1011.1
20260510060029 59 146 0.0 0.0 0.00 0.00 0.00 70 1011.1
20260510054526 57 79 0.0 0.0 0.00 0.00 0.00 72 1011.1
20260510053026 56 88 0.0 0.0 0.00 0.00 0.00 73 1011.2
20260510051524 55 94 0.0 0.0 0.00 0.00 0.00 74 1011.2
20260510050022 54 142 0.0 0.0 0.00 0.00 0.00 75 1011.4
20260510044530 54 86 0.0 0.0 0.00 0.00 0.00 75 1011.4
20260510043022 54 96 0.0 0.0 0.00 0.00 0.00 75 1011.5
20260510041520 53 90 0.0 0.0 0.00 0.00 0.00 76 1011.4
20260510040019 53 90 0.0 0.0 0.00 0.00 0.00 75 1011.6
20260510034519 53 90 0.0 0.0 0.00 0.00 0.00 77 1011.5
20260510033017 53 90 0.0 0.0 0.00 0.00 0.00 75 1011.6
20260510031516 54 90 0.0 0.0 0.00 0.00 0.00 74 1011.6
20260510030014 54 91 0.0 0.0 0.00 0.00 0.00 74 1011.7
20260510024638 54 91 0.0 0.0 0.00 0.00 0.00 74 1011.8
20260510023013 54 82 0.0 0.0 0.00 0.00 0.00 74 1012.0
20260510021511 53 83 0.0 0.0 0.00 0.00 0.00 75 1012.0
20260510020009 54 83 0.0 0.0 0.00 0.00 0.00 74 1012.1
20260510014508 54 83 0.0 0.0 0.00 0.00 0.00 73 1012.3
20260510013007 55 83 0.0 0.0 0.00 0.00 0.00 72 1012.3
20260510011504 55 82 0.0 0.0 0.00 0.00 0.00 72 1012.4
20260510010002 55 81 0.0 0.0 0.00 0.00 0.00 72 1012.5
20260510004601 55 19 0.0 0.0 0.00 0.00 0.00 72 1012.7
20260510003059 55 19 0.0 0.0 0.00 0.00 0.00 72 1012.9
20260510001557 56 19 0.0 0.0 0.00 0.00 0.00 71 1013.0
20260510000106 56 19 0.0 0.0 0.00 0.00 0.00 70 1013.2
20260509234601 56 19 0.0 0.0 0.00 0.00 0.00 70 1013.2
20260509233054 57 19 0.0 0.0 0.00 0.00 0.00 70 1013.3
20260509231554 56 19 0.0 0.0 0.00 0.00 0.00 70 1013.4
20260509230052 57 19 0.0 0.0 0.00 0.00 0.00 69 1013.5
20260509224552 57 19 0.0 0.0 0.00 0.00 0.00 70 1013.5
20260509223059 56 19 0.0 0.0 0.00 0.00 0.00 72 1013.6
20260509221549 55 19 0.0 0.0 0.00 0.00 0.00 75 1013.5
20260509220046 56 19 0.0 0.0 0.00 0.00 0.00 75 1013.5
20260509214545 56 19 0.0 0.0 0.00 0.00 0.00 75 1013.5
20260509213045 57 19 0.0 0.0 0.00 0.00 0.00 74 1013.5
20260509211545 58 19 0.0 0.0 0.00 0.00 0.00 72 1013.5
20260509210049 59 19 0.0 0.0 0.00 0.00 0.00 71 1013.7
20260509204550 59 19 0.0 0.0 0.00 0.00 0.00 69 1013.7
20260509203044 60 19 0.0 0.0 0.00 0.00 0.00 68 1013.8
20260509201546 61 19 0.0 0.0 0.00 0.00 0.00 67 1013.8
20260509200059 62 19 0.0 0.0 0.00 0.00 0.00 66 1013.8
20260509194543 63 19 0.0 0.0 0.00 0.00 0.00 64 1013.7
20260509193041 63 19 0.0 0.0 0.00 0.00 0.00 63 1013.6
20260509191540 65 19 0.0 0.0 0.00 0.00 0.00 63 1013.6
20260509190040 66 19 0.0 0.0 0.00 0.00 0.00 59 1013.5
20260509184554 68 19 0.0 0.0 0.00 0.00 0.00 55 1013.4
20260509183039 68 19 0.0 0.9 0.00 0.00 0.00 54 1013.3
20260509181546 69 19 0.0 0.9 0.00 0.00 0.00 51 1013.3
20260509180038 69 19 0.0 1.7 0.00 0.00 0.00 48 1013.2
20260509174539 70 242 0.0 0.0 0.00 0.00 0.00 46 1013.1
20260509173039 70 242 0.0 0.9 0.00 0.00 0.00 43 1013.1
20260509171538 71 242 0.0 0.9 0.00 0.00 0.00 44 1013.0
20260509170038 72 243 0.0 0.0 0.00 0.00 0.00 41 1013.1
20260509164535 73 243 0.0 0.9 0.00 0.00 0.00 39 1013.1
20260509163035 76 242 0.0 0.9 0.00 0.00 0.00 36 1013.4
20260509161533 75 242 0.0 1.7 0.00 0.00 0.00 35 1013.5
20260509160035 75 252 0.0 0.9 0.00 0.00 0.00 36 1013.6
20260509154529 75 252 0.0 1.7 0.00 0.00 0.00 36 1013.7
20260509153039 76 252 0.0 2.6 0.00 0.00 0.00 36 1013.9
20260509151525 77 285 0.0 0.9 0.00 0.00 0.00 34 1014.1
20260509150030 76 284 0.0 1.7 0.00 0.00 0.00 38 1014.2
20260509144528 76 284 0.0 1.7 0.00 0.00 0.00 37 1014.2
20260509143021 76 292 0.0 1.7 0.00 0.00 0.00 37 1014.3
20260509141523 75 293 0.0 2.6 0.00 0.00 0.00 40 1014.4
20260509140015 74 312 0.0 1.7 0.00 0.00 0.00 41 1014.6
20260509134524 74 299 0.0 3.5 0.00 0.00 0.00 38 1014.8
20260509133017 74 32 0.0 1.7 0.00 0.00 0.00 42 1014.9
20260509131512 73 249 0.0 2.6 0.00 0.00 0.00 45 1015.2
20260509130005 72 90 0.0 1.7 0.00 0.00 0.00 48 1015.3
20260509124505 71 182 0.0 1.7 0.00 0.00 0.00 51 1015.5
20260509123002 70 294 0.0 2.6 0.00 0.00 0.00 53 1015.6
20260509121616 71 76 0.0 2.6 0.00 0.00 0.00 56 1015.8
20260509120115 72 247 0.9 2.6 0.00 0.00 0.00 51 1016.0
20260509114603 72 41 0.0 2.6 0.00 0.00 0.00 54 1016.1
20260509113055 71 91 0.9 2.6 0.00 0.00 0.00 54 1016.3
20260509111602 70 263 0.0 1.7 0.00 0.00 0.00 54 1016.3
20260509110047 69 55 0.9 2.6 0.00 0.00 0.00 58 1016.6
20260509104548 69 171 0.0 1.7 0.00 0.00 0.00 57 1016.8
20260509103051 68 88 0.0 2.6 0.00 0.00 0.00 60 1017.0
20260509101606 67 105 0.0 3.5 0.00 0.00 0.00 60 1017.1
20260509100041 67 95 0.0 4.3 0.00 0.00 0.00 62 1017.2
20260509094538 65 90 0.0 2.6 0.00 0.00 0.00 65 1017.3
20260509093033 65 74 0.9 3.5 0.00 0.00 0.00 62 1017.4
20260509091538 64 85 0.9 4.3 0.00 0.00 0.00 63 1017.3
20260509090036 64 136 0.0 4.3 0.00 0.00 0.00 65 1017.4